This demonstration page uses our WeatherBlox Daily Observations layout. Learn more.

Left ArrowRight Arrow

Hourly Observations for March 20, 2016

Temp ( °F °C ) Dew Point ( °F °C ) Humidity (%) Winds ( mph kmh ) Pressure ( in mb ) Visibility ( mi km ) Precip ( " mm )
12:54 am 00:54 Clear 32 0 25 -3.9 75 75 NNW 10 17 30.40 1029 10 16 0.00 0.00
1:54 am 01:54 Clear 31 -0.6 25 -3.9 79 79 NNW 14 22 30.40 1030 10 16 0.00 0.00
2:54 am 02:54 Clear 30 -1.1 24 -4.4 79 79 NNW 14 22 30.41 1030 10 16 0.00 0.00
3:54 am 03:54 Clear 28 -2 25 -4 86 86 NNW 10 17 30.45 1031 10 16 0.00 0.00
4:54 am 04:54 Clear 29 -1.7 23 -5 78 78 NNW 12 19 30.41 1030 10 16 0.00 0.00
5:54 am 05:54 Clear 27 -2.8 22 -5.6 81 81 N 9 15 30.42 1030 10 16 0.00 0.00
6:54 am 06:54 Clear 27 -2.8 22 -5.6 81 81 NNW 6 9 30.44 1031 10 16 0.00 0.00
7:54 am 07:54 Sunny 25 -3.9 21 -6.1 85 85 NNW 5 7 30.46 1032 10 16 0.00 0.00
9:54 am 09:54 Sunny 35 1.7 26 -3.3 70 70 NNW 10 17 30.48 1032 10 16 0.00 0.00
11:54 am 11:54 Mostly Cloudy 41 5 22 -5.6 47 47 VRB 3 6 30.46 1032 10 16 0.00 0.00
1:54 pm 13:54 Sunny 44 6.7 19 -7.2 37 37 VRB 5 7 30.41 1030 10 16 0.00 0.00
3:54 pm 15:54 Sunny 47 8.3 18 -7.8 31 31 NW 9 15 30.35 1028 10 16 0.00 0.00
4:54 pm 16:54 Sunny 48 8.9 18 -7.8 30 30 VRB 5 7 30.32 1027 10 16 0.00 0.00
5:54 pm 17:54 Sunny 47 8.3 17 -8.3 30 30 W 8 13 30.32 1027 10 16 0.00 0.00
6:54 pm 18:54 Sunny 47 8.3 17 -8.3 30 30 W 5 7 30.31 1027 10 16 0.00 0.00
7:54 pm 19:54 Clear 41 5 18 -7.8 39 39 S 3 6 30.31 1026 10 16 0.00 0.00
8:54 pm 20:54 Clear 39 3.9 21 -6.1 48 48 SSE 5 7 30.30 1026 10 16 0.00 0.00
9:54 pm 21:54 Clear 38 3.3 19 -7.2 46 46 SSE 5 7 30.28 1026 10 16 0.00 0.00
10:54 pm 22:54 Clear 35 1.7 19 -7.2 52 52 S 7 11 30.28 1025 10 16 0.00 0.00
11:54 pm 23:54 Clear 32 0 19 -7.2 59 59 SSE 6 9 30.25 1025 10 16 0.00 0.00

Powered by AerisWeather